Location: Balsareny
(41.8670°N, 1.8830°E)
Time: 18:00:27
(UTC+02:00)

X-37B - Visible Passes

Search period start: 20 June 2021 00:00
Search period end: 30 June 2021 00:00
Orbit: 386 x 389 km, 45.0° (Epoch: 10 June)

Date Brightness Start Highest point End Pass type
(mag) Time Alt. Az. Time Alt. Az. Time Alt. Az.
20 Jun 3.1 02:28:47 17° ENE 02:28:47 17° ENE 02:29:43 10° ENE visible
20 Jun 1.4 04:01:04 15° WNW 04:03:31 52° N 04:06:38 10° E visible
20 Jun 0.8 05:37:06 10° WNW 05:40:10 47° SSW 05:43:13 10° SE visible
21 Jun 1.8 03:05:32 41° NNE 03:05:32 41° NNE 03:08:08 10° E visible
21 Jun 0.4 04:38:40 10° WNW 04:41:51 79° SSW 04:45:01 10° ESE visible
22 Jun 0.8 03:43:03 59° NW 03:43:28 70° NNE 03:46:38 10° E visible
22 Jun 1.6 05:17:13 10° W 05:19:57 27° SSW 05:22:40 10° SSE visible
22 Jun 0.6 23:28:21 10° SW 23:31:22 53° SSE 23:31:22 53° SSE visible
23 Jun 1.0 04:22:08 42° S 04:22:08 42° S 04:24:44 10° SE visible
23 Jun 1.4 22:30:21 10° SSW 22:33:11 30° SSE 22:36:02 10° E visible
24 Jun 0.9 00:06:32 10° W 00:09:42 64° NNW 00:10:09 55° NNE visible
24 Jun 0.5 23:08:08 10° WSW 23:11:19 87° SSE 23:14:30 10° ENE visible
25 Jun 2.0 00:45:04 10° WNW 00:47:29 38° NW 00:47:29 38° NW visible
25 Jun 0.7 22:09:52 10° SW 22:12:59 53° SSE 22:16:05 10° ENE visible
25 Jun 1.5 23:46:34 10° W 23:49:40 50° N 23:51:53 17° ENE visible
26 Jun 3.3 01:23:27 10° WNW 01:24:10 15° WNW 01:24:10 15° WNW visible
26 Jun 1.0 22:48:05 10° W 22:51:14 64° NNW 22:54:24 10° ENE visible
27 Jun 1.6 00:25:03 10° WNW 00:28:08 45° N 00:28:17 45° NNE visible
27 Jun 1.7 23:26:35 10° WNW 23:29:40 45° N 23:32:18 13° ENE visible
28 Jun 2.9 01:03:22 10° WNW 01:04:33 21° WNW 01:04:33 21° WNW visible
28 Jun 1.5 22:28:05 10° W 22:31:12 50° N 22:34:19 10° ENE visible
29 Jun 1.2 00:05:00 10° WNW 00:08:07 53° N 00:08:29 49° NE visible
29 Jun 1.6 23:06:35 10° WNW 23:09:40 45° N 23:12:24 12° ENE visible
